This is the latest recevied weather packets stored in our database for station/object DW9280. If no packets are shown the sender has not sent any weather packets the latest 10 day(s).
| Time | Temp. | Humidity | Pressure | Rain* | Wind** | Luminosity | Snow |
|---|---|---|---|---|---|---|---|
| 1778169125 | 15.56° C | 64% | 1016.3 hPa | 0 mm | - | 169 W/m² | - |
| 1778168824 | 15.56° C | 64% | 1016.3 hPa | 0 mm | - | 510 W/m² | - |
| 1778168522 | 16.11° C | 64% | 1016.3 hPa | 0 mm | - | 190 W/m² | - |
| 1778168224 | 16.11° C | 63% | 1016.3 hPa | 0 mm | - | 279 W/m² | - |
| 1778167925 | 16.11° C | 60% | 1016.3 hPa | 0 mm | - | 197 W/m² | - |
| 1778167622 | 16.67° C | 59% | 1016.2 hPa | 0 mm | - | 213 W/m² | - |
| 1778167334 | 16.67° C | 62% | 1016.3 hPa | 0 mm | - | 650 W/m² | - |
| 1778167023 | 16.11° C | 60% | 1016.2 hPa | 0 mm | - | 663 W/m² | - |
| 1778166847 | 16.67° C | 61% | 1016.2 hPa | 0 mm | - | 229 W/m² | - |
| 1778166423 | 16.67° C | 61% | 1016.2 hPa | 0 mm | - | 643 W/m² | - |
| 1778166123 | 16.67° C | 60% | 1016.2 hPa | 0 mm | - | 626 W/m² | - |
| 1778165822 | 16.67° C | 58% | 1016.1 hPa | 0 mm | - | 643 W/m² | - |
| 1778165524 | 16.67° C | 60% | 1016.1 hPa | 0 mm | - | 629 W/m² | - |
| 1778165222 | 16.67° C | 60% | 1016.2 hPa | 0 mm | - | 619 W/m² | - |
| 1778164926 | 16.67° C | 56% | 1016.1 hPa | 0 mm | - | 647 W/m² | - |
| 1778164625 | 16.67° C | 59% | 1016.2 hPa | 0 mm | - | 452 W/m² | - |
| 1778164323 | 16.67° C | 59% | 1016.2 hPa | 0 mm | - | 652 W/m² | - |
| 1778164024 | 16.67° C | 59% | 1016.2 hPa | 0 mm | - | 638 W/m² | - |
| 1778163723 | 16.67° C | 60% | 1016.3 hPa | 0 mm | - | 638 W/m² | - |
| 1778163423 | 16.67° C | 60% | 1016.3 hPa | 0 mm | - | 645 W/m² | - |
| 1778163123 | 16.67° C | 61% | 1016.3 hPa | 0 mm | - | 647 W/m² | - |
| 1778162822 | 16.67° C | 61% | 1016.4 hPa | 0 mm | - | 657 W/m² | - |
| 1778162523 | 16.11° C | 58% | 1016.5 hPa | 0 mm | - | 668 W/m² | - |
| 1778162224 | 16.67° C | 58% | 1016.4 hPa | 0 mm | - | 680 W/m² | - |
| 1778161923 | 16.67° C | 59% | 1016.5 hPa | 0 mm | - | 686 W/m² | - |
* Rain latest hour (hover to see other rain measurements)
** Current wind speed in m/s (hover to see current wind gust speed)